Location: Mountain Grove
(34.0887°N, 86.6172°W)
Time: 00:50:59
(UTC+00:00)

USA 267 - Pass Details

Date: 14 July 2020
Orbit: 1102 x 1106 km, 123.0° (Epoch: 09 August)

Event Time Altitude Azimuth Distance (km) Brightness Sun altitude
Exits shadow 05:54:07 51° 65° (ENE) 1,360 3.7 -34.3°
Maximum altitude 05:54:53 54° 41° (NE) 1,321 3.7 -34.3°
Drops below altitude 10° 06:01:12 10° 326° (NW) 2,961 6.1 -34.3°
Sets 06:03:44 0° 322° (NW) 3,921 6.8 -34.2°
